Regional Weather Roundup
Issued by NWS Charleston, SC

Home | Current Version | Previous Version | Text Only | Print | Product List | Glossary On
Versions: 1 2 3 4 5 6 7 8 9 10 11 12 13 14 15 16 17 18 19 20 21 22 23 24 25 26 27 28 29 30 31 32 33 34 35 36 37 38 39 40 41 42 43 44 45 46 47 48 49 50
000
ASUS42 KCHS 271810
RWRCHS

REGIONAL WEATHER ROUNDUP
NATIONAL WEATHER SERVICE CHARLESTON SC
100 PM EST TUE JAN 27 2015

NOTE: "FAIR" INDICATES FEW OR NO CLOUDS BELOW 12,000 FEET WITH NO
SIGNIFICANT WEATHER AND/OR OBSTRUCTIONS TO VISIBILITY.

NOT ALL STATIONS ARE QUALITY CONTROLLED BY THE NATIONAL
WEATHER SERVICE. USE DATA WITH CAUTION...ESPECIALLY
DEWPOINT OBSERVATIONS.

SCZ027-030-031-034>040-042>050-271900-
...SOUTHEAST SOUTH CAROLINA...

CITY           SKY/WX    TMP DP  RH WIND       PRES   REMARKS
N CHARLESTON   PTSUNNY   50  22  33 W10       29.85F
6HR MIN TEMP:  34; 6HR MAX TEMP:  50;

WATERFRONT PRK NOT AVBL
MOUNT PLEASANT FAIR     N/A N/A N/A NW13G21   29.84F
PINOPOLIS      NOT AVBL
MONCKS CORNER  CLOUDY    46  27  46 N6        29.86F
SUMMERVILLE    FAIR      46  27  46 NW10      29.87F
BEAUFORT MCAS  PTSUNNY   49  30  48 N12       29.87F
6HR MIN TEMP:  35; 6HR MAX TEMP:  50;

BEAUFORT ARPT  CLOUDY    48  32  53 N8        29.87F
HILTON HEAD IS SUNNY     48  32  53 N12G18    29.88F
WALTERBORO     CLOUDY    46  23  39 NW8       29.88F
ALLENDALE      CLOUDY    46  30  53 N9G17     29.88F

...SOUTHERN MIDLANDS AND PEE DEE...

CITY           SKY/WX    TMP DP  RH WIND       PRES   REMARKS
GEORGETOWN     NOT AVBL
KINGSTREE      NOT AVBL
ORANGEBURG     CLOUDY    46  25  43 N8        29.87F
6HR MIN TEMP:  33; 6HR MAX TEMP:  47;

BARNWELL       MOCLDY    46  32  57 CALM      29.89F
AIKEN          MOCLDY    45  30  57 N7        29.91S
MANNING        NOT AVBL
COLUMBIA       CLOUDY    46  26  45 NW8       29.87F
6HR MIN TEMP:  29; 6HR MAX TEMP:  46;

SUMTER         CLOUDY    44  19  37 NW13G18   29.85F
6HR MIN TEMP:  30; 6HR MAX TEMP:  44; 6HR PCP: TRACE;

FLORENCE       MOSUNNY   46  17  31 NW14      29.83F
6HR MIN TEMP:  32; 6HR MAX TEMP:  46;

MYRTLE BEACH   MOSUNNY   46  25  42 NW13      29.83F
N MYRTLE BEACH MOSUNNY   46  26  45 NW12G20   29.80F
6HR MIN TEMP:  38; 6HR MAX TEMP:  46;


$$

GAZ063-065-086>088-099>101-113>116-118-119-134>141-150-271900-
...SOUTHEAST GEORGIA...

CITY           SKY/WX    TMP DP  RH WIND       PRES   REMARKS
SAVANNAH ARPT  PTSUNNY   53  31  42 W13G21    29.87F
6HR MIN TEMP:  36; 6HR MAX TEMP:  53;

HUNTER AAF     CLOUDY    53  32  44 NW20G25   29.85F
6HR MIN TEMP:  36; 6HR MAX TEMP:  53;

FORT STEWART   CLOUDY    52  34  50 W15       29.88F
6HR MIN TEMP:  37; 6HR MAX TEMP:  52;

STATESBORO     MOSUNNY   54  33  44 NW17G28   29.87F
SYLVANIA       PTCLDY    51  36  55 NW12G17   29.88F
CLAXTON        FAIR      54  36  50 W16G24    29.89F

...CSRA...CENTRAL AND FAR SOUTHEAST GEORGIA...

CITY           SKY/WX    TMP DP  RH WIND       PRES   REMARKS
THOMSON        CLOUDY    51  33  52 NW14      29.93S
AUGUSTA-BUSH   MOSUNNY   50  30  46 NW14G23   29.89F
6HR MIN TEMP:  30; 6HR MAX TEMP:  50;

AUGUSTA-DANIEL MOSUNNY   49  30  48 NW10G18   29.89F
SWAINSBORO     FAIR      54  19  26 NW12G20   29.89F
VIDALIA        MOSUNNY   52  36  54 NW14      29.91F
EASTMAN        FAIR      53  36  52 NW9G22    29.95F
HAZLEHURST     FAIR      56  37  49 W10G20    29.90F
ALMA           PTSUNNY   55  36  48 W15G21    29.91F
6HR MIN TEMP:  35; 6HR MAX TEMP:  56;

WAYCROSS       MOSUNNY   60  40  49 NW14      29.92F
JESUP          CLOUDY    55  39  54 NW18      29.91F
BAXLEY         CLOUDY    55  36  47 W12G20    29.91F
BRUNSWICK      PTSUNNY   55  34  44 W13G26    29.91F
SAINT SIMONS   SUNNY     55  33  43 W12G20    29.90F
6HR MIN TEMP:  39; 6HR MAX TEMP:  55;


$$

SCZ027-028-034-036>038-045-046-048>050-GAZ119-141-271900-
...LAKE AND SUPPLEMENTAL COASTAL OBSERVATIONS...

STATION/POSITION TIME  TEMP    WIND        PRES    WAVE   SWELL
                       AIR SEA DIR/SP/G            HT/PER HT/PER/DIR
                 (UTC) (F)     (DEG/KT/KT) (MB)    (FT/S) (FT/S/D)
UPR LAKE MARION  NOT AVBL
WINYAH BAY       1645   43     300/ 11     1009.0
LAKE MURRAY      1700   41     330/  5/ 13 1011.9F
ACE BASIN NERRS  1645   47     340/  5     1012.0
FORT PULASKI     1700   47 52  290/ 17/ 19 1012.4F
SAPELO ISLAND    NOT AVBL

$$

ANZ835-935-AMZ111-154-330-350-352-354-370-450-454-472-271900-
...C-MAN AND BUOY OBSERVATIONS...

STATION/POSITION TIME  TEMP    WIND        PRES    WAVE   SWELL
                       AIR SEA DIR/SP/G            HT/PER HT/PER/DIR
                 (UTC) (F)     (DEG/KT/KT) (MB)    (FT/S) (FT/S/D)
BUOY 41004       1750   45 68  300/ 14/ 17 1009.8F   5/ 6   2/12
BUOY 41008       1750   50 55  280/ 17/ 21 1011.4F   3/ 4
FOLLY BEACH CMAN 1700   46     300/  6/ 10 1011.7F
CAPERS NEARSHORE 1700   45     340/ 14/ 16   N/A
FRIPP NEARSHORE  1700   46     340/ 14/ 17   N/A


STATION/POSITION TIME  TEMP    WIND        PRES    WAVE   SWELL
                       AIR SEA DIR/SP/G            HT/PER HT/PER/DIR
                 (UTC) (F)     (DEG/KT/KT) (MB)    (FT/S) (FT/S/D)
5E ST. MARYS GA  1722      58                N/A     2/ 3
FRYING PAN BUOY  1750   43 66  330/ 16/ 21 1009.0F   6/ 8   3/200/ 8
BUOY 41025       1750   38 69  340/ 17/ 23 1006.0R   9/12   7/ 30/12
CAPE LOOKOUT NC  1700   37     340/ 15/ 19 1007.6F
BUOY 41002       1750   58 71  280/ 29/ 37 1004.2F  15/10   8/270/10
BUOY 41010       1720   61 76  290/ 25/ 31 1012.4F
ST AUGUSTINE FL  1800   57     260/ 13/ 17 1013.5F


$$



USA.gov is the U.S. government's official web portal to all federal, state and local government web resources and services.